Temperature
32 33 33 33 33 33 33 32 32 31 31 31 30 30 30 28 28 28 27 26 25 24 23 22 21 20 20 19 19 19 19 19 18 18 18 18 17 17 17 17 17 17 17 17
32 32 33 33 33 33 33 32 32 31 30 30 30 30 31 29 28 28 27 26 25 25 23 22 21 21 20 20 19 19 19 19 18 18 18 18 18 17 17 17 17 17 17 17
32 33 33 32 32 32 32 32 32 31 30 31 31 31 30 30 28 28 27 27 26 25 24 23 22 21 20 20 20 19 19 19 19 18 18 18 18 18 17 17 17 17 17 17
32 32 32 32 32 32 32 32 32 31 31 31 31 31 31 30 29 29 28 27 27 26 24 23 22 21 21 20 20 20 20 20 19 19 18 18 18 18 18 17 17 17 17 17
32 32 32 32 32 32 32 32 32 32 32 32 31 31 32 31 30 30 29 28 27 26 25 24 23 22 21 21 20 20 20 20 20 19 19 18 18 18 18 18 18 17 17 17
32 32 32 32 32 32 31 31 31 32 32 31 31 31 31 32 31 31 30 28 27 26 25 24 23 22 22 21 20 20 20 20 20 20 19 19 18 18 18 18 18 18 17 17
30 31 32 32 31 31 32 32 31 31 31 31 31 31 31 32 31 31 30 29 27 26 25 24 23 22 22 21 21 20 20 20 20 20 19 19 19 18 18 18 18 18 17 17
30 30 31 32 32 32 32 32 31 30 30 31 30 31 32 32 31 30 29 29 27 26 25 24 23 23 22 22 21 21 20 20 20 20 20 19 19 18 18 18 18 18 17 17
31 31 32 32 32 32 32 32 33 32 31 31 32 32 32 31 31 30 29 28 27 26 26 25 24 23 23 22 21 21 21 21 20 20 20 19 19 19 18 18 18 18 18 17
31 30 31 31 31 31 32 32 32 31 30 30 31 31 32 31 31 31 30 29 28 27 26 25 24 23 23 22 22 21 21 21 20 20 20 19 19 19 19 18 18 18 18 18
31 30 30 31 31 31 30 31 31 31 31 30 30 31 32 32 31 31 30 29 28 27 26 25 24 23 23 22 22 21 21 21 20 20 20 19 19 19 18 18 18 18 18 17
29 30 30 30 31 31 32 32 31 30 29 30 31 31 32 32 32 31 30 29 28 27 26 25 24 23 23 22 22 21 21 21 20 20 20 20 19 19 18 18 18 18 18 17
29 29 28 29 30 30 30 31 31 32 31 31 30 31 31 31 31 30 29 29 27 26 26 25 24 23 22 22 22 21 21 21 21 20 20 20 19 19 19 18 18 18 17 17
27 28 29 29 30 30 30 30 31 31 30 31 31 31 31 31 30 30 29 28 27 26 25 24 24 23 22 22 22 22 21 21 21 20 20 20 19 19 19 18 18 18 17 17
27 28 28 29 30 30 30 30 30 30 31 31 31 31 30 30 30 29 28 27 26 25 25 24 23 23 22 22 22 22 22 21 21 21 20 20 19 19 19 18 18 18 17 17
26 27 27 28 29 29 29 30 30 30 30 31 31 30 30 29 28 27 27 26 26 25 24 23 23 23 22 22 22 22 22 21 21 21 20 20 20 19 19 18 18 18 17 17
26 25 26 28 28 28 28 29 29 29 30 30 30 30 30 29 28 27 26 25 25 24 23 23 22 22 22 22 22 22 22 21 21 21 20 20 20 19 19 18 18 17 17 17
24 25 26 27 27 26 29 29 29 29 29 29 29 29 29 28 27 26 25 24 24 24 23 22 22 22 22 22 22 22 22 21 21 21 20 20 20 19 18 18 17 17 17 16
24 24 26 26 26 27 27 28 28 28 28 28 28 28 27 27 27 26 25 24 23 23 23 22 22 22 22 22 21 21 21 21 21 20 20 20 20 19 18 18 17 17 16 16
23 23 25 25 25 26 27 27 26 27 27 26 26 26 26 26 28 27 24 23 23 22 22 22 21 21 21 21 21 21 21 21 20 20 20 19 19 18 18 17 17 16 16 16
23 23 24 25 25 27 26 26 26 26 26 24 24 24 24 25 25 24 22 22 21 21 21 21 21 21 20 20 21 21 20 20 20 19 19 19 18 18 17 17 16 16 16 15
24 24 24 25 25 25 24 25 25 24 23 23 23 23 23 22 22 22 21 21 21 20 20 20 20 20 20 20 20 20 19 19 19 18 18 18 18 17 17 16 16 16 15 15
23 23 24 24 24 23 22 23 22 21 21 21 22 22 21 21 21 21 20 20 20 20 20 19 19 19 19 19 19 19 19 19 18 18 18 17 17 16 16 16 15 15 15 14
22 21 22 22 22 22 21 21 20 20 20 20 20 20 20 20 20 20 19 19 19 19 19 19 19 18 18 18 19 19 18 18 18 17 17 17 16 16 16 15 15 14 14 14
21 21 21 21 21 21 20 20 19 19 19 19 19 19 19 20 19 19 19 19 18 18 18 18 18 18 18 17 18 18 17 17 17 17 17 16 16 15 15 15 15 14 14 14
20 20 21 21 20 20 19 18 18 18 18 18 18 18 19 19 18 18 18 18 18 18 17 17 17 17 17 17 17 17 17 17 17 16 16 16 15 15 15 14 14 14 14 13
Wind_Speed
7 9 8 7 6 3 2 3 1 3 4 6 6 5 7 10 11 10 9 9 8 8 7 7 7 6 6 6 5 5 4 3 3 2 2 2 3 2 2 2 1 2 2 2
9 11 6 4 4 5 5 4 2 4 4 4 4 5 6 10 12 10 10 9 9 8 8 8 7 7 7 7 6 6 5 4 4 3 2 1 1 1 1 1 1 2 2 2
14 7 6 7 7 7 6 4 2 3 5 5 4 6 7 9 10 10 10 10 10 9 9 10 9 9 8 7 7 5 5 5 4 4 3 2 2 2 2 2 1 1 2 2
11 6 8 10 8 7 6 3 3 5 6 2 4 2 5 8 9 11 11 11 11 10 10 10 10 10 9 8 7 7 6 6 5 5 4 3 2 2 1 1 0 1 1 1
10 9 10 10 8 7 2 3 4 5 5 4 3 4 3 6 8 10 11 11 11 11 11 10 10 10 9 9 8 7 7 6 6 5 4 4 3 2 1 1 1 1 1 1
8 7 8 8 5 6 7 6 5 6 7 5 2 5 1 3 4 6 9 10 11 11 11 10 10 10 9 9 8 8 7 7 6 6 5 4 3 2 1 1 1 1 1 1
11 10 7 7 8 9 9 8 6 7 7 4 2 4 2 2 2 4 8 10 11 12 12 11 11 11 10 10 9 8 8 7 7 6 5 4 3 3 2 2 1 2 1 1
14 14 12 10 11 10 12 12 9 7 6 4 4 4 0 2 2 4 7 10 11 12 12 12 12 12 11 11 10 10 9 8 7 6 5 4 4 3 2 2 2 1 1 1
12 12 10 8 7 9 11 12 9 8 8 7 4 3 3 3 5 6 8 10 11 12 12 13 12 12 12 11 11 11 10 9 8 7 6 5 4 3 2 2 2 2 1 1
7 9 10 8 7 4 7 9 7 9 8 8 6 7 3 4 5 7 8 10 11 12 12 12 12 12 11 11 10 10 10 9 8 7 6 5 4 4 3 2 1 1 1 1
9 9 10 11 12 12 9 10 9 8 9 9 8 3 0 3 5 7 9 10 11 12 12 12 11 11 11 10 10 10 10 9 8 7 6 5 5 4 3 2 2 1 1 1
9 9 10 11 6 4 11 12 12 10 9 9 10 4 3 1 4 5 7 8 10 11 11 11 11 11 11 11 10 10 10 9 8 8 7 6 5 4 4 3 2 2 2 1
7 8 11 11 11 9 10 11 13 13 11 11 12 6 3 3 3 4 5 8 9 11 11 11 11 11 11 11 10 10 10 9 9 8 7 6 6 5 4 3 2 2 2 2
6 9 12 14 11 11 12 12 12 13 12 13 13 8 3 3 3 4 4 6 9 11 11 11 11 10 10 10 11 10 10 9 9 8 8 7 5 4 4 3 3 2 2 2
5 10 11 11 9 9 11 13 13 15 15 14 11 9 6 5 4 3 4 6 8 9 11 11 11 11 11 11 11 10 10 10 9 9 8 7 6 5 4 4 3 3 3 3
2 6 9 11 11 12 13 13 13 14 13 13 11 9 5 4 4 3 4 5 7 8 9 10 11 11 11 12 11 11 10 10 9 9 8 7 7 6 5 4 4 4 3 3
5 5 8 11 10 12 16 14 14 13 12 12 13 10 6 5 5 4 4 4 5 7 8 8 10 11 11 11 11 12 11 10 10 9 8 8 7 7 6 5 5 4 3 3
6 6 7 9 9 15 9 5 9 11 11 10 9 7 6 6 5 4 3 4 5 6 7 8 8 9 10 11 11 11 11 11 10 9 8 8 8 7 6 5 5 4 3 3
7 7 7 9 13 12 7 4 6 9 9 6 6 6 5 4 5 4 2 3 4 5 5 6 7 8 9 11 12 12 11 11 10 10 9 8 8 7 7 6 5 4 4 3
7 8 9 9 12 12 6 3 3 6 9 2 3 4 4 4 6 4 2 3 3 2 3 4 6 7 8 9 11 12 11 11 10 10 9 9 8 7 6 6 5 4 4 4
9 8 12 13 12 8 1 1 4 9 4 2 4 4 3 4 5 4 4 3 2 2 3 5 6 7 8 9 10 11 11 10 9 9 8 8 8 8 7 6 5 5 5 4
8 9 10 11 13 8 3 1 4 3 5 5 5 4 4 4 4 4 2 1 1 2 4 5 6 7 7 9 10 10 9 8 8 9 8 8 7 7 7 7 6 5 5 5
6 4 5 6 5 2 2 3 4 4 5 6 6 6 6 5 4 3 2 1 1 2 3 5 6 6 7 8 9 9 8 8 9 9 8 7 7 6 6 6 6 5 4 4
4 2 3 4 3 2 2 3 4 5 5 6 6 7 6 5 4 3 1 1 1 2 3 5 6 6 6 7 7 7 8 9 9 9 8 7 7 6 5 5 5 5 4 4
4 4 5 6 4 3 2 4 5 6 6 6 5 6 6 5 3 2 1 1 1 2 3 4 5 6 6 6 6 7 8 9 9 8 7 7 7 6 6 5 3 3 3 2
5 5 6 5 3 5 5 6 8 7 6 6 5 5 4 3 2 1 0 1 2 2 3 4 5 5 5 6 6 6 7 8 8 7 7 6 6 6 6 5 4 4 2 4
Wind_Direction
199 212 207 202 226 264 239 230 168 115 152 206 221 216 183 185 198 199 197 195 195 195 185 181 184 190 186 182 184 189 193 184 202 203 209 200 191 192 179 186 175 202 226 222
206 214 207 203 209 222 224 222 168 132 160 215 226 231 202 196 204 207 204 200 201 194 185 182 184 185 187 183 186 187 189 189 198 188 207 217 220 206 198 217 178 228 239 249
220 199 176 195 197 210 217 232 213 161 167 204 237 217 201 196 203 207 213 209 203 198 193 186 188 188 187 186 188 187 186 187 192 194 198 194 191 204 197 196 199 225 242 258
219 188 189 205 205 217 214 227 216 185 210 193 247 283 169 189 198 204 208 208 203 196 193 189 187 189 188 186 183 185 184 184 184 193 205 209 210 213 214 235 171 184 209 269
202 194 202 212 208 217 202 155 188 208 241 255 228 285 132 176 199 200 200 200 196 190 188 187 187 186 187 184 179 179 180 180 181 187 192 208 218 225 214 191 151 233 194 254
204 197 216 212 187 178 149 156 174 219 242 247 264 277 270 151 193 185 183 187 187 183 182 182 181 180 183 181 180 176 174 179 180 185 192 201 207 222 244 249 255 242 228 226
201 200 192 188 175 175 199 211 219 224 227 238 167 263 312 83 143 177 176 178 179 179 179 179 178 180 182 182 181 179 175 178 180 182 189 194 203 206 215 245 248 283 295 280
204 202 195 200 212 203 215 229 242 251 251 229 192 251 92 106 137 166 169 169 173 176 178 178 178 179 182 182 182 182 179 179 180 182 185 190 201 211 210 228 271 276 298 323
212 206 185 200 219 226 212 228 251 254 263 267 241 244 235 175 168 166 167 168 173 176 178 179 177 179 181 183 184 184 180 179 181 183 182 185 191 204 206 212 234 254 270 279
225 212 191 182 188 213 242 224 226 242 249 255 244 240 236 189 185 176 173 173 174 175 177 177 176 179 179 181 182 183 181 179 180 182 187 180 182 187 199 219 230 280 293 296
229 218 196 196 210 205 197 211 225 238 253 259 257 245 81 213 194 185 176 175 175 176 176 173 174 175 174 177 178 179 178 177 178 180 181 181 179 180 187 196 213 216 249 262
219 225 217 208 200 248 226 222 215 227 232 247 266 261 85 185 194 182 176 172 175 175 173 170 169 170 173 175 174 172 174 177 179 176 176 176 175 177 180 178 194 180 194 204
205 220 217 211 204 205 221 223 228 235 237 238 248 243 132 142 175 180 183 174 174 175 173 169 168 171 174 174 172 171 174 174 173 170 170 167 170 171 175 172 176 167 171 173
231 225 230 230 220 207 212 216 224 230 235 237 243 253 237 214 214 201 192 183 178 176 176 175 173 174 174 172 171 171 170 169 167 166 165 164 164 165 164 159 159 164 161 155
230 225 231 244 244 233 227 225 223 233 246 250 246 247 253 252 249 233 209 190 182 177 179 181 179 175 173 171 170 170 169 168 165 163 162 159 157 154 152 151 154 154 150 148
230 231 228 234 233 234 234 231 230 234 242 245 248 250 261 256 252 237 217 196 191 188 185 183 182 178 175 173 171 169 171 169 166 165 160 155 152 150 153 155 155 152 149 149
205 214 225 230 221 231 233 231 230 230 236 243 244 250 248 247 251 251 233 211 204 201 195 189 188 184 180 177 173 171 169 167 165 164 160 157 155 156 159 158 151 149 146 141
219 224 228 233 221 233 230 234 237 235 236 241 251 257 249 252 257 253 230 227 227 219 203 195 191 184 181 176 172 168 165 165 164 163 161 160 158 157 157 155 151 149 145 139
219 220 230 229 229 231 223 221 228 232 238 246 252 257 261 264 245 227 234 254 243 230 211 197 191 184 175 173 169 166 166 167 169 168 167 164 161 157 157 156 155 153 151 146
194 220 230 228 236 233 212 199 250 245 232 251 277 270 272 261 248 249 303 296 271 230 196 187 176 166 167 170 168 168 171 172 175 172 170 166 161 158 159 157 155 155 156 155
194 208 225 231 235 234 216 242 222 231 239 321 295 288 277 277 296 301 299 285 266 212 176 169 165 163 167 168 169 174 175 177 174 169 167 163 161 160 158 156 156 154 153 149
218 215 218 230 236 227 59 229 249 311 339 319 302 289 283 285 303 304 297 272 225 186 168 165 166 162 162 166 170 172 172 165 160 161 162 161 161 162 157 155 154 152 152 154
232 257 245 239 243 360 345 323 328 326 315 315 310 300 286 280 286 299 296 249 183 167 165 166 160 153 154 163 167 164 156 154 155 156 157 156 156 158 157 158 156 159 169 177
213 247 249 246 230 268 313 332 336 329 317 312 307 301 287 275 281 287 283 178 149 143 153 155 154 155 154 155 157 154 154 158 156 155 154 155 158 160 159 162 167 177 183 192
258 239 238 243 250 261 272 323 328 324 318 314 311 305 291 277 274 275 219 137 118 127 140 148 154 158 157 153 150 152 156 158 156 155 156 161 165 162 162 164 164 192 185 204
249 256 254 256 278 283 291 317 320 316 317 314 307 311 309 297 281 271 149 110 116 123 124 138 147 149 148 144 145 150 155 158 157 158 164 171 168 165 174 168 153 63 76 93
Height
1510 1508 1508 1507 1506 1507 1509 1513 1516 1517 1518 1521 1523 1523 1525 1531 1534 1536 1539 1541 1544 1546 1549 1550 1551 1552 1553 1554 1554 1555 1555 1555 1555 1556 1556 1557 1557 1558 1558 1558 1558 1558 1558 1558
1509 1508 1505 1506 1508 1509 1510 1514 1516 1518 1520 1521 1521 1521 1521 1526 1530 1533 1536 1539 1542 1544 1547 1548 1550 1551 1552 1553 1553 1554 1554 1555 1555 1555 1555 1556 1556 1557 1557 1557 1557 1557 1557 1558
1507 1504 1507 1509 1510 1512 1511 1512 1514 1518 1519 1519 1520 1521 1519 1522 1527 1531 1533 1536 1538 1541 1544 1546 1548 1549 1551 1551 1552 1553 1553 1554 1554 1554 1555 1556 1555 1556 1557 1557 1556 1556 1557 1557
1504 1505 1508 1508 1509 1509 1514 1509 1512 1516 1519 1518 1519 1524 1517 1517 1522 1526 1529 1532 1535 1538 1541 1544 1546 1547 1549 1550 1551 1551 1552 1552 1553 1553 1554 1555 1555 1556 1556 1556 1556 1556 1555 1555
1505 1506 1508 1509 1507 1508 1510 1511 1512 1514 1516 1517 1517 1521 1515 1514 1518 1520 1523 1527 1531 1535 1538 1541 1544 1546 1547 1549 1550 1550 1551 1552 1552 1553 1553 1554 1555 1555 1556 1555 1555 1554 1555 1554
1502 1505 1505 1505 1506 1508 1511 1513 1515 1513 1513 1527 1520 1523 1519 1509 1513 1514 1519 1524 1528 1532 1536 1539 1542 1544 1546 1548 1549 1550 1550 1551 1551 1552 1553 1553 1554 1554 1554 1554 1554 1554 1554 1554
1507 1504 1504 1506 1508 1511 1511 1516 1526 1530 1528 1526 1516 1521 1516 1507 1509 1512 1516 1521 1526 1530 1533 1536 1539 1542 1544 1546 1547 1548 1549 1550 1551 1551 1552 1552 1553 1553 1553 1554 1554 1554 1554 1553
1510 1510 1503 1503 1503 1507 1508 1509 1526 1536 1532 1520 1518 1519 1508 1506 1510 1513 1515 1519 1523 1527 1531 1534 1536 1539 1542 1544 1545 1547 1547 1549 1550 1551 1551 1552 1552 1553 1553 1553 1553 1553 1553 1552
1502 1505 1499 1501 1502 1502 1507 1507 1501 1512 1518 1523 1515 1511 1505 1505 1508 1511 1514 1517 1521 1525 1528 1532 1534 1537 1540 1542 1543 1545 1546 1547 1549 1550 1551 1551 1551 1552 1552 1552 1552 1552 1552 1552
1497 1505 1500 1502 1504 1505 1501 1501 1508 1514 1531 1533 1522 1515 1509 1505 1506 1508 1512 1515 1519 1523 1526 1530 1532 1535 1538 1540 1542 1543 1545 1546 1548 1549 1550 1551 1551 1551 1551 1551 1551 1551 1551 1550
1496 1504 1503 1502 1503 1503 1507 1507 1507 1509 1513 1526 1528 1516 1498 1501 1503 1505 1509 1513 1517 1520 1524 1527 1530 1533 1536 1538 1539 1541 1543 1544 1546 1547 1548 1549 1549 1550 1550 1550 1550 1550 1550 1549
1498 1499 1503 1500 1498 1498 1498 1499 1505 1517 1521 1517 1518 1513 1497 1500 1501 1504 1508 1512 1516 1519 1523 1526 1528 1531 1533 1536 1537 1539 1541 1543 1544 1545 1547 1547 1548 1548 1549 1549 1549 1549 1549 1548
1499 1502 1512 1510 1507 1503 1501 1499 1498 1499 1505 1512 1517 1512 1499 1501 1503 1506 1508 1511 1515 1518 1521 1524 1527 1529 1531 1533 1535 1537 1539 1541 1543 1544 1545 1546 1547 1547 1547 1548 1548 1548 1547 1547
1501 1499 1503 1507 1500 1496 1501 1501 1500 1500 1508 1508 1506 1502 1499 1500 1502 1506 1508 1511 1513 1516 1519 1522 1524 1527 1529 1531 1533 1535 1537 1539 1541 1542 1543 1544 1545 1546 1546 1547 1547 1546 1546 1546
1500 1499 1498 1495 1492 1493 1496 1498 1499 1500 1498 1501 1499 1498 1499 1499 1502 1505 1508 1510 1512 1514 1517 1519 1522 1524 1526 1528 1530 1532 1535 1536 1538 1540 1541 1542 1544 1544 1545 1545 1545 1545 1545 1545
1502 1501 1499 1499 1494 1494 1496 1495 1495 1497 1496 1496 1496 1498 1496 1500 1503 1505 1507 1508 1510 1512 1514 1517 1519 1521 1523 1525 1527 1530 1532 1534 1536 1538 1539 1540 1541 1542 1543 1543 1543 1544 1544 1544
1500 1503 1504 1500 1495 1498 1501 1493 1493 1494 1493 1494 1497 1496 1497 1499 1501 1503 1505 1507 1509 1510 1512 1514 1515 1517 1519 1522 1524 1527 1529 1531 1533 1535 1537 1538 1539 1540 1541 1541 1542 1542 1542 1542
1503 1504 1502 1498 1503 1512 1493 1487 1488 1491 1491 1492 1493 1494 1496 1498 1500 1502 1504 1505 1507 1508 1510 1511 1512 1514 1517 1519 1521 1524 1526 1528 1530 1532 1534 1535 1536 1537 1538 1539 1540 1540 1540 1541
1503 1504 1500 1499 1501 1498 1493 1490 1490 1493 1494 1493 1493 1495 1497 1498 1499 1500 1502 1503 1504 1506 1507 1508 1510 1512 1514 1516 1518 1520 1523 1525 1527 1529 1531 1532 1533 1535 1536 1537 1538 1538 1539 1539
1502 1502 1500 1499 1503 1503 1492 1489 1492 1494 1496 1495 1496 1497 1498 1497 1494 1496 1500 1501 1502 1503 1504 1505 1507 1509 1511 1513 1515 1517 1520 1522 1524 1526 1528 1530 1531 1532 1533 1534 1535 1536 1537 1537
1499 1501 1499 1498 1499 1490 1490 1492 1493 1500 1496 1497 1497 1498 1499 1498 1498 1499 1499 1499 1500 1501 1502 1503 1504 1505 1507 1510 1512 1514 1517 1519 1521 1523 1525 1527 1528 1529 1530 1532 1533 1534 1534 1535
1494 1494 1498 1496 1498 1496 1493 1493 1494 1496 1498 1497 1497 1498 1498 1498 1498 1498 1498 1497 1497 1498 1499 1500 1501 1502 1504 1507 1509 1512 1514 1516 1518 1520 1522 1524 1525 1527 1528 1529 1530 1531 1532 1533
1493 1493 1489 1493 1495 1495 1495 1497 1498 1499 1499 1498 1498 1497 1497 1497 1497 1497 1496 1496 1496 1496 1497 1499 1500 1501 1503 1505 1507 1509 1511 1513 1515 1518 1519 1521 1523 1525 1526 1527 1528 1529 1530 1532
1495 1498 1496 1496 1493 1496 1497 1498 1499 1499 1498 1498 1497 1497 1496 1495 1495 1495 1494 1494 1495 1495 1496 1497 1499 1501 1502 1503 1505 1507 1508 1510 1512 1514 1516 1518 1520 1522 1523 1525 1527 1528 1529 1530
1496 1496 1494 1495 1496 1497 1497 1498 1498 1498 1497 1496 1495 1495 1494 1494 1493 1493 1492 1493 1493 1494 1495 1496 1497 1498 1500 1502 1503 1505 1506 1508 1510 1512 1513 1515 1517 1519 1521 1522 1523 1525 1526 1527
1497 1496 1494 1492 1496 1496 1496 1497 1497 1495 1494 1494 1493 1492 1492 1492 1491 1491 1491 1491 1492 1493 1493 1494 1495 1497 1499 1500 1501 1503 1504 1506 1508 1509 1511 1513 1514 1516 1518 1520 1520 1520 1523 1524